DECAYED

STARLINK-11336, 61698 (Decayed)

Orbit data source: Space-Track

STARLINK-11336, 61698 was a payload satellite owned by SpaceX/Seattle (US) in LEO that was launched on Wed, 30 Oct 2024 UTC via an FALCON 9 launch vehicle from the Air Force Western Test Range (AFWTR). Payload-class satellites include a variety of spacecraft equipped with specific instruments for various scientific and technological missions. These include communications satellites like Starlink; space stations such as the ISS; scientific satellites like the Hubble; Earth observation satellites from companies like Planet Labs, Umbra, and HawkEye 360; GPS; miniature CubeSats for education and research; and military/defense satellites.

Not visible in the next 10 days
Identifier
61698, 2024-195M
Orbit
Decayed
Country
Flag of USUS
Related business
Manufacturer
SpaceX/Seattle
Mission
Decayed Commercial Communications
Bus & Motor
STARLINK V2MD, Unknown motor
Mass
960 kg wet, ~910 kg dry
Launch date (UTC)
2024-10-30 (2 years ago)
Launch vehicle
FALCON 9
Launch site
Air Force Western Test Range (AFWTR)
Object type
Payload
Rocket body
Debris
Shape & HBR
Box + 2 Pan, 18.1 m
Radar Cross Section
36.964 m², Large (>1 m²)

Expand to show TLE details & history
Last TLE update: 6 months ago

TLE from 6 months ago
0 STARLINK-11336
1 61698U 24195M   25345.17104451  .15785448  12132-4  35498-2 0  9999
2 61698  53.1356  89.8636 0007395 304.0144  56.0197 16.29379039 65306
Epoch: 2025-12-11T04:06Z
TLE epoch observation values (Epoch: 2025-12-11T04:06:18.245Z)
Latitude
0.00003°
Longitude
-51.84326°
Altitude
192.43 km
Speed
7.794 km/s
True Right ascension
05h 59m 27s
True Declination
0° 00' 00"
Sunlit
Object was in full shadow at epoch
Visualization orbit readout
Latitude
Unknown
Longitude
Unknown
Altitude
Unknown
Speed
Unknown
Apparent Right ascension
Unknown
Apparent Declination
Unknown
Sunlit
N/A
Visualization observer readout
Local Sidereal Time
07:13:22
Azimuth
Unknown
Elevation
Unknown
Doppler factor
Unknown
Orbital elements
Apogee altitude
199.341 km
Perigee altitude
189.62 km
Semi-major axis
6,572.617 km
Eccentricity
0.00074
Inclination
53.1356°
RAAN
89.8636°
Arg. of periapsis
304.0144°
True anomaly
56.09001°
Mean anomaly
56.0197°
Eccentric anomaly
56.05485°
Mean motion
4.0732 °/min
Orbital period
88.38 mins
BSTAR
0.0035498
Loading maneuver chart data...
Computing Atmospheric mass density...
Loading historical data...
Loading historical data...
Loading historical data...
Loading historical data...
Loading historical data...
Loading historical data...
Loading historical data...

Documentation

Showing up to 5 results
|